Date String (YYYY-MM-DD hh:mm:ss) UTC,Instrument flags,Ambient pressure (hPa),Sample flow (lpm),Bypass flow (lpm),Sample temperature (°C),Ambient temperature (°C),ASC tube jacket temperature (°C),LED temperature (°C),Box temperature (°C),Sample RH (%),Span deviation,Mass concentration (μg/m³),Mass concentration (μg/m³),Mass concentration (μg/m³)
DateTimeUTC,F1_M11,P_M11,Q1_M11,Q2_M11,T1_M11,T2_M11,T3_M11,T4_M11,T5_M11,U1_M11,ZSPAN_M11,X2_M11,X0_M11,X1_M11
2023-01-22 08:00:00,,0821.4,4.99,0.00,22.4,21.1,00.0,31.2,24.2,08.9,0000.0,0003.14,0005.22,0002.86
2023-01-22 08:01:00,,0821.4,4.99,0.00,22.4,21.1,00.0,31.2,24.2,08.9,0000.0,0003.12,0005.22,0002.83
2023-01-22 08:02:00,,0821.4,5.01,0.00,22.4,21.1,00.0,31.2,24.1,08.9,0000.0,0003.11,0005.17,0002.81
2023-01-22 08:03:00,,0821.4,5.01,0.00,22.4,21.1,00.0,31.2,24.1,08.9,0000.0,0003.11,0005.15,0002.81
2023-01-22 08:04:00,,0821.4,5.00,0.00,22.4,21.1,00.0,31.2,24.1,08.9,0000.0,0003.12,0005.15,0002.80
2023-01-22 08:05:00,,0821.4,5.00,0.00,22.4,21.0,00.0,31.2,24.1,08.9,0000.0,0003.10,0005.12,0002.78
2023-01-22 08:06:00,,0821.4,5.01,0.00,22.4,20.9,00.0,31.2,24.1,08.9,0000.0,0003.09,0005.13,0002.77
2023-01-22 08:07:00,,0821.4,4.99,0.00,22.3,20.8,00.0,31.2,24.1,08.9,0000.0,0003.09,0005.13,0002.77
2023-01-22 08:08:00,,0821.4,5.01,0.00,22.3,21.0,00.0,31.2,24.1,09.0,0000.0,0003.10,0004.92,0002.77
2023-01-22 08:09:00,,0821.4,4.99,0.00,22.4,22.0,00.0,31.2,24.3,08.9,0000.0,0003.10,0004.43,0002.78
2023-01-22 08:10:00,,0821.4,5.01,0.00,22.5,22.9,00.0,31.2,24.5,08.9,0000.0,0003.11,0004.18,0002.80
2023-01-22 08:11:00,,0821.4,5.00,0.00,22.6,23.0,00.0,31.2,24.6,08.9,0000.0,0003.14,0004.03,0002.83
2023-01-22 08:12:00,,0821.4,4.99,0.00,22.7,22.6,00.0,31.3,24.6,08.9,0000.0,0003.16,0004.13,0002.85
2023-01-22 08:13:00,,0821.4,5.01,0.00,22.7,22.2,00.0,31.3,24.5,08.9,0000.0,0003.19,0004.23,0002.88
2023-01-22 08:14:00,,0821.4,5.00,0.00,22.7,21.9,00.0,31.3,24.5,08.8,0000.0,0003.21,0004.36,0002.88
2023-01-22 08:15:00,,0821.4,5.00,0.00,22.6,21.6,00.0,31.3,24.4,08.8,0000.0,0003.23,0004.60,0002.88
2023-01-22 08:16:00,,0821.4,5.00,0.00,22.6,21.5,00.0,31.3,24.4,08.9,0000.0,0003.24,0004.54,0002.91
2023-01-22 08:17:00,,0821.4,5.02,0.00,22.6,21.4,00.0,31.3,24.3,08.9,0000.0,0003.25,0004.49,0002.94
2023-01-22 08:18:00,,0821.4,5.00,0.00,22.6,21.3,00.0,31.3,24.3,08.9,0000.0,0003.26,0004.50,0002.96
2023-01-22 08:19:00,,0821.4,5.00,0.00,22.6,21.2,00.0,31.3,24.3,08.9,0000.0,0003.26,0005.24,0002.99
2023-01-22 08:20:00,,0821.4,4.99,0.00,22.6,21.1,00.0,31.3,24.3,08.9,0000.0,0003.26,0005.43,0003.00
2023-01-22 08:21:00,,0821.3,4.98,0.00,22.6,21.1,00.0,31.3,24.3,08.9,0000.0,0003.28,0006.85,0003.01
2023-01-22 08:22:00,,0821.4,5.00,0.00,22.5,21.1,00.0,31.3,24.3,08.9,0000.0,0003.28,0006.85,0002.99
2023-01-22 08:23:00,,0821.3,5.00,0.00,22.5,21.1,00.0,31.3,24.3,08.9,0000.0,0003.27,0006.83,0002.98
2023-01-22 08:24:00,,0821.3,4.99,0.00,22.5,21.1,00.0,31.3,24.3,08.9,0000.0,0003.25,0006.77,0002.96
2023-01-22 08:25:00,,0821.2,5.00,0.00,22.5,21.1,00.0,31.3,24.3,08.9,0000.0,0003.24,0006.69,0002.96
2023-01-22 08:26:00,,0821.3,4.98,0.00,22.5,21.0,00.0,31.3,24.2,08.9,0000.0,0003.22,0006.44,0002.97
2023-01-22 08:27:00,,0821.3,5.02,0.00,22.5,20.9,00.0,31.3,24.1,08.9,0000.0,0003.22,0006.47,0002.98
2023-01-22 08:28:00,,0821.3,4.99,0.00,22.4,20.8,00.0,31.3,24.1,08.9,0000.0,0003.25,0006.63,0002.97
2023-01-22 08:29:00,,0821.3,4.99,0.00,22.4,20.8,00.0,31.3,24.1,08.9,0000.0,0003.24,0006.63,0002.94
2023-01-22 08:30:00,,0821.3,5.00,0.00,22.4,20.8,00.0,31.3,24.1,08.9,0000.0,0003.25,0005.94,0002.92
2023-01-22 08:31:00,,0821.2,5.01,0.00,22.4,20.7,00.0,31.2,24.1,09.0,0000.0,0003.27,0005.81,0002.93
2023-01-22 08:32:00,,0821.2,5.00,0.00,22.3,20.7,00.0,31.2,24.0,09.0,0000.0,0003.27,0004.53,0002.92
2023-01-22 08:33:00,,0821.2,5.00,0.00,22.4,21.4,00.0,31.2,24.2,09.2,0000.0,0003.27,0004.61,0002.93
2023-01-22 08:34:00,,0821.2,5.01,0.00,22.5,22.4,00.0,31.2,24.4,09.2,0000.0,0003.25,0004.49,0002.93
2023-01-22 08:35:00,,0821.3,4.99,0.00,22.6,22.5,00.0,31.2,24.5,09.1,0000.0,0003.25,0004.54,0002.93
2023-01-22 08:36:00,,0821.3,4.99,0.00,22.6,22.2,00.0,31.3,24.5,09.0,0000.0,0003.24,0004.50,0002.94
2023-01-22 08:37:00,,0821.4,5.02,0.00,22.6,21.8,00.0,31.3,24.4,09.0,0000.0,0003.24,0004.53,0002.93
2023-01-22 08:38:00,,0821.3,4.99,0.00,22.6,21.6,00.0,31.3,24.3,09.0,0000.0,0003.23,0004.49,0002.92
2023-01-22 08:39:00,,0821.2,5.00,0.00,22.6,21.4,00.0,31.3,24.3,09.0,0000.0,0003.21,0004.38,0002.92
2023-01-22 08:40:00,,0821.2,5.00,0.00,22.5,21.2,00.0,31.3,24.3,09.0,0000.0,0003.21,0004.38,0002.93
2023-01-22 08:41:00,,0821.2,4.99,0.00,22.5,21.1,00.0,31.3,24.3,09.0,0000.0,0003.19,0004.27,0002.93
2023-01-22 08:42:00,,0821.3,5.01,0.00,22.5,21.0,00.0,31.3,24.2,09.0,0000.0,0003.15,0004.03,0002.90
2023-01-22 08:43:00,,0821.4,5.00,0.00,22.5,21.0,00.0,31.3,24.2,09.0,0000.0,0003.14,0004.03,0002.89
2023-01-22 08:44:00,,0821.4,5.00,0.00,22.5,21.0,00.0,31.3,24.1,09.0,0000.0,0003.12,0003.95,0002.88
2023-01-22 08:45:00,,0821.4,5.00,0.00,22.4,20.9,00.0,31.3,24.1,09.1,0000.0,0003.13,0004.05,0002.87
2023-01-22 08:46:00,,0821.4,5.00,0.00,22.4,20.8,00.0,31.2,24.1,09.3,0000.0,0003.15,0004.10,0002.86
2023-01-22 08:47:00,,0821.4,5.00,0.00,22.4,20.8,00.0,31.2,24.0,09.2,0000.0,0003.13,0005.82,0002.83
2023-01-22 08:48:00,,0821.3,5.00,0.00,22.3,20.7,00.0,31.2,24.0,09.1,0000.0,0003.13,0005.85,0002.79
2023-01-22 08:49:00,,0821.3,4.98,0.00,22.3,20.6,00.0,31.2,24.0,09.1,0000.0,0003.12,0005.87,0002.76
2023-01-22 08:50:00,,0821.3,5.01,0.00,22.3,20.6,00.0,31.2,23.9,09.1,0000.0,0003.12,0005.88,0002.72
2023-01-22 08:51:00,,0821.2,5.00,0.00,22.3,20.7,00.0,31.2,23.9,09.1,0000.0,0003.09,0005.89,0002.68
2023-01-22 08:52:00,,0821.2,5.00,0.00,22.3,21.6,00.0,31.1,24.1,09.1,0000.0,0003.06,0005.95,0002.65
2023-01-22 08:53:00,,0821.2,5.00,0.00,22.4,22.4,00.0,31.1,24.4,09.0,0000.0,0003.05,0006.02,0002.64
2023-01-22 08:54:00,,0821.1,4.99,0.00,22.5,22.3,00.0,31.2,24.4,09.0,0000.0,0003.01,0005.96,0002.61
2023-01-22 08:55:00,,0821.1,5.00,0.00,22.5,21.9,00.0,31.2,24.4,08.9,0000.0,0002.96,0005.79,0002.56
2023-01-22 08:56:00,,0821.2,5.03,0.00,22.5,21.6,00.0,31.2,24.3,08.9,0000.0,0002.89,0006.78,0002.52
2023-01-22 08:57:00,,0821.1,4.99,0.00,22.5,21.4,00.0,31.2,24.2,08.9,0000.0,0002.85,0006.92,0002.48
2023-01-22 08:58:00,,0821.1,4.99,0.00,22.5,21.2,00.0,31.2,24.2,08.9,0000.0,0002.84,0006.40,0002.46
2023-01-22 08:59:00,,0821.1,5.00,0.00,22.5,21.1,00.0,31.2,24.2,08.9,0000.0,0002.80,0006.14,0002.44
